Theta_e
353 354 354 352 353 355 357 355 348 352 352 350 347 347 348 351 350 352 348 346 345 345 344 344 341 339 339 339 338 338 338 341 342 343 343 343 337 330 331 332 332 329 329 333 336 341 340 341 340
351 350 351 349 356 357 354 351 352 351 350 350 349 349 348 351 350 348 348 346 345 345 344 342 342 340 340 343 339 338 338 338 338 339 340 339 337 335 330 332 328 334 335 336 337 338 340 341 339
351 349 348 353 356 355 353 350 350 349 350 350 350 349 349 349 348 348 347 345 345 345 342 341 343 341 342 343 339 341 340 339 338 338 337 336 339 333 330 330 333 335 337 336 336 336 335 341 338
350 348 345 352 353 352 351 349 347 349 351 350 350 350 350 349 349 347 346 344 345 343 340 340 341 341 340 340 340 340 339 339 337 337 337 339 340 340 333 332 332 333 334 336 335 336 335 334 335
348 345 353 355 353 350 348 348 348 349 349 351 350 351 350 348 348 347 344 344 344 343 341 341 342 342 339 340 340 338 340 339 338 338 339 339 340 340 339 336 336 335 335 337 339 339 339 338 336
348 343 353 354 352 351 350 349 347 348 351 351 350 349 350 348 347 346 344 344 344 344 343 342 343 341 341 342 343 340 340 338 338 339 339 339 339 341 340 340 339 338 338 338 339 338 336 333 332
350 348 350 352 353 353 353 351 349 349 351 350 350 349 347 348 348 346 345 344 344 344 345 343 344 344 342 339 341 342 339 338 338 338 339 341 340 339 338 339 339 339 338 338 337 334 335 337 336
347 346 347 349 353 352 351 350 350 350 350 350 347 349 349 349 348 345 346 346 345 345 346 345 344 342 339 342 337 337 338 338 340 340 343 341 339 337 336 333 332 334 335 334 332 337 339 339 337
344 349 351 347 352 350 350 350 351 350 350 349 348 349 347 347 348 345 346 345 345 345 343 341 340 342 339 336 343 339 342 340 339 342 341 340 337 335 335 336 336 334 330 330 331 337 339 338 337
342 348 345 343 347 350 350 349 351 351 351 350 349 348 347 346 348 346 345 342 340 339 338 337 336 336 335 335 341 339 341 338 340 341 340 338 339 334 335 333 334 334 331 330 333 337 338 336 337
343 347 344 346 348 349 350 350 349 351 353 350 350 348 348 347 348 347 346 344 342 341 341 341 341 337 338 337 339 340 340 338 339 341 339 337 338 333 337 337 338 339 337 334 332 332 333 335 336
344 344 343 347 349 350 351 349 349 349 349 348 347 343 348 348 348 348 348 348 345 345 345 345 342 340 340 337 337 338 338 337 339 340 340 337 335 341 340 340 339 340 340 339 338 338 335 333 336
335 344 347 344 346 347 349 349 349 348 347 346 345 345 348 348 348 349 349 349 344 344 346 345 345 343 340 338 337 338 339 336 339 339 340 339 335 340 341 342 342 340 342 341 343 343 342 339 339
342 345 346 343 344 347 349 349 348 347 348 348 347 347 347 348 348 348 349 349 346 345 345 344 344 344 343 344 339 339 340 337 339 339 340 339 336 343 342 342 341 340 342 342 340 344 342 341 342
340 339 338 341 341 346 349 351 350 347 347 348 348 348 348 347 348 345 345 347 347 346 346 346 345 344 344 344 343 343 342 338 339 340 340 339 338 341 340 341 342 341 341 342 342 343 343 342 340
332 338 337 335 340 344 348 346 346 347 347 348 348 348 348 348 346 345 345 345 346 346 346 346 346 346 343 344 344 344 343 342 340 341 340 340 338 337 339 342 341 342 341 340 343 342 340 339 340
331 332 331 331 338 345 348 342 345 347 347 348 349 348 348 348 348 347 345 344 345 345 346 345 344 345 345 345 345 345 345 344 342 342 342 341 339 339 342 342 340 341 342 343 342 339 339 340 340
330 329 329 330 330 337 339 343 341 346 347 347 348 349 348 348 348 347 345 345 345 344 345 346 343 344 344 344 345 346 346 345 345 343 341 341 339 342 343 342 342 345 342 343 343 342 341 341 341
327 328 329 330 329 331 334 338 339 342 347 347 346 347 348 347 347 348 345 346 345 345 345 345 344 343 343 343 343 345 345 345 345 343 342 340 338 342 341 341 343 342 340 344 345 342 341 341 341
327 328 330 330 329 331 338 344 345 345 346 347 347 346 346 346 346 346 346 345 346 346 345 344 344 344 343 343 341 343 344 345 344 343 343 340 337 342 340 340 341 341 343 344 344 344 342 342 342
328 328 329 329 328 336 345 340 343 343 346 346 346 346 345 344 344 345 346 344 347 346 346 344 344 344 344 343 341 343 344 345 344 343 342 339 336 342 340 339 339 342 343 344 344 344 343 342 343
329 327 327 328 330 331 339 332 336 333 337 341 343 346 345 343 343 343 345 344 346 345 346 345 344 344 344 342 341 343 344 344 343 342 340 336 338 339 338 339 340 342 343 344 346 346 342 340 338
329 327 327 328 329 329 331 335 330 331 335 335 336 345 345 344 343 344 345 343 344 344 345 345 344 344 344 341 341 343 344 344 342 341 339 336 340 339 339 341 342 342 341 345 347 345 341 344 341
327 328 328 325 328 331 329 329 329 330 331 332 338 343 346 345 344 344 344 345 344 343 344 344 344 344 344 339 342 343 343 342 342 340 339 338 342 341 342 341 339 344 344 344 344 345 343 340 342
327 328 332 333 332 332 325 330 331 330 330 332 337 339 345 346 344 344 344 344 343 342 343 343 340 344 344 339 342 342 342 342 342 340 338 340 343 343 343 339 340 342 344 344 345 345 344 342 342
328 329 331 333 333 332 326 331 329 329 327 336 338 339 345 346 345 344 343 343 342 341 343 340 343 343 344 338 342 342 342 343 342 341 337 339 341 344 342 339 343 345 345 341 340 342 343 343 342
327 329 326 328 322 327 329 329 328 329 330 333 340 340 343 344 346 345 344 343 342 342 342 343 343 343 343 339 339 341 342 342 340 339 337 339 341 342 340 342 344 347 348 342 341 340 341 339 340
327 325 327 326 332 332 329 329 329 332 335 333 334 335 341 343 343 344 344 343 342 342 342 342 343 343 343 341 337 338 339 341 341 339 340 341 337 337 336 339 343 343 344 343 343 342 344 343 342
325 326 323 325 326 332 332 330 330 333 332 332 334 335 337 340 343 344 344 343 342 343 342 342 343 343 343 343 336 337 337 339 340 339 340 341 341 341 341 342 342 342 343 343 344 343 342 343 341
326 328 325 330 331 324 326 330 326 329 329 332 333 334 337 339 341 342 343 343 341 342 343 343 342 343 343 343 340 336 337 337 338 339 341 342 341 340 342 343 344 344 344 343 342 344 343 344 341
Wind_Speed
8 7 3 2 1 3 3 3 2 4 2 3 5 2 2 3 2 2 10 22 25 23 20 18 17 18 17 14 14 14 14 14 15 15 15 12 13 16 18 19 15 11 10 9 9 9 8 7 6
8 7 2 2 3 3 2 2 3 3 4 4 5 3 1 2 2 5 21 21 21 23 21 20 18 16 15 14 11 12 13 14 13 14 14 14 14 12 16 16 11 8 7 7 9 8 7 7 5
10 7 2 3 2 3 3 3 3 2 1 2 3 4 2 2 1 15 18 25 24 23 21 20 18 16 13 11 11 10 11 11 12 12 13 13 9 14 14 14 12 9 6 6 7 8 9 8 6
9 4 4 4 5 2 2 3 3 1 3 4 4 4 3 4 5 16 22 26 24 23 20 18 16 14 13 10 10 9 9 10 10 12 10 9 10 10 15 13 13 12 9 7 7 7 6 8 8
6 3 3 3 3 0 3 3 5 2 1 6 5 4 4 5 10 15 24 24 23 22 20 17 15 14 13 11 10 9 9 10 9 11 10 10 9 8 15 15 12 11 11 8 8 7 7 5 5
3 2 3 3 3 1 3 3 3 2 4 5 3 7 5 7 10 19 22 23 21 19 18 17 14 14 13 11 10 10 9 10 10 8 9 11 10 9 12 12 12 12 10 9 8 7 6 6 6
3 2 2 1 2 1 1 6 4 4 5 4 8 6 4 11 14 18 21 21 19 18 17 18 14 14 12 10 10 10 9 9 8 7 8 6 9 12 10 9 8 9 8 8 8 8 8 7 6
3 1 1 2 1 1 2 5 4 3 5 7 6 3 4 17 19 20 21 20 19 17 16 15 15 14 13 11 11 10 8 8 7 6 6 5 13 11 8 7 7 8 8 8 9 10 8 6 5
2 1 1 1 1 1 4 3 3 3 9 4 5 2 3 20 22 23 23 21 19 17 16 15 14 13 12 12 11 10 8 7 5 7 9 11 13 9 8 7 8 7 8 9 9 10 9 8 7
1 1 1 0 1 1 2 5 7 5 8 5 4 5 8 20 24 24 23 21 19 18 18 16 15 14 13 14 12 11 10 8 7 9 9 10 9 8 8 7 7 7 7 9 10 11 10 9 8
1 2 3 2 1 4 2 4 4 5 7 8 10 13 18 21 22 21 20 20 20 18 17 16 16 15 14 14 13 12 11 10 10 11 8 11 9 9 7 6 6 6 7 8 8 9 9 8 7
3 2 2 1 1 0 1 2 4 11 5 5 8 14 20 22 21 21 20 19 18 17 14 14 15 15 15 13 13 12 11 10 10 11 10 12 10 9 6 5 5 6 8 7 6 6 7 8 8
7 5 3 4 4 3 3 5 5 9 8 5 12 17 19 19 19 19 18 16 16 14 15 14 15 14 14 15 15 15 13 11 11 11 10 12 11 9 7 5 7 6 4 5 6 5 6 8 8
6 7 7 3 4 3 4 3 1 2 10 12 16 20 18 18 18 18 19 18 19 15 15 15 15 14 16 13 15 15 14 12 12 11 11 12 11 10 6 5 6 8 6 5 6 6 8 9 8
6 7 7 2 3 2 2 6 10 6 11 16 18 20 19 18 18 20 17 18 17 18 15 16 15 15 16 15 14 13 13 13 13 11 10 14 12 10 8 6 7 8 7 6 6 5 8 9 8
4 2 6 5 2 1 2 7 3 8 15 17 19 20 20 20 20 19 17 15 15 16 15 14 15 17 17 15 17 16 15 14 14 13 11 13 11 9 8 4 7 5 5 6 7 6 6 8 8
5 5 11 8 2 1 5 13 6 7 15 15 19 22 22 21 21 21 20 16 16 15 16 15 14 16 17 16 17 19 17 16 14 16 13 11 13 8 7 6 10 5 5 5 6 4 5 7 9
8 8 9 12 6 7 10 20 15 7 14 18 19 21 24 23 26 23 23 20 18 17 17 17 14 15 16 16 19 20 19 19 18 17 16 12 13 10 7 8 8 6 6 6 5 7 8 9 11
7 7 12 17 8 6 7 16 20 13 17 19 22 24 26 27 24 21 20 22 21 20 19 19 18 17 16 17 19 21 22 23 21 20 18 14 15 11 9 10 10 9 7 5 5 5 10 8 9
5 10 12 12 4 4 8 13 16 11 20 25 26 27 27 26 24 22 22 25 27 24 21 21 19 17 15 15 15 20 21 22 21 20 19 17 17 15 14 8 11 8 5 5 5 4 6 8 7
9 7 6 8 14 2 7 9 6 3 10 14 22 26 28 28 29 27 27 26 27 27 25 22 20 17 14 13 14 16 19 20 21 21 20 20 18 14 14 7 11 10 8 5 5 4 4 6 8
9 5 7 10 11 9 3 9 16 4 8 11 15 22 27 26 26 25 25 28 30 28 26 22 19 17 15 13 16 19 21 18 21 21 21 19 16 15 13 8 10 12 9 7 6 5 4 3 6
6 2 9 9 7 5 4 4 7 6 7 8 6 16 22 26 27 26 27 29 29 27 25 24 21 17 14 13 17 19 20 17 18 20 21 18 17 16 12 9 12 9 12 8 6 5 4 3 3
6 8 4 1 1 6 2 3 8 4 9 13 7 6 17 23 24 23 25 25 26 25 23 22 22 19 15 13 18 20 20 20 20 22 20 20 17 15 12 12 11 10 7 7 5 3 3 4 5
3 5 4 3 3 7 3 4 10 17 10 10 12 5 15 21 23 24 27 27 26 26 28 18 19 22 19 15 20 20 20 19 19 21 20 21 18 14 10 14 12 8 7 6 4 3 3 1 0
5 4 5 4 6 12 2 5 5 8 13 8 5 3 11 21 27 27 30 32 31 28 32 29 18 19 23 16 20 21 22 21 20 20 20 19 18 13 11 13 11 9 8 6 6 7 4 3 4
4 6 2 2 1 3 2 4 11 3 6 9 3 4 8 15 24 28 26 31 33 32 31 38 32 18 20 17 20 22 23 23 21 21 19 18 18 16 11 14 13 9 8 7 5 4 5 5 6
10 7 3 2 3 4 3 5 6 11 12 13 11 8 10 12 17 22 24 29 32 32 31 33 34 29 20 18 21 21 22 22 20 21 19 16 16 18 15 14 13 12 11 11 10 8 7 8 8
4 4 2 1 3 5 7 5 5 6 9 11 14 13 8 11 15 20 23 28 29 29 30 33 33 29 26 21 20 22 23 24 22 22 19 16 15 15 14 13 13 12 12 13 14 14 11 9 9
5 3 6 7 6 3 4 8 3 5 10 5 11 13 10 9 12 16 21 24 27 30 31 32 33 37 25 23 20 22 22 23 23 23 20 17 16 16 17 14 13 12 12 14 17 17 16 13 12
Wind_Direction
2 351 4 53 91 64 82 82 0 88 109 328 183 199 334 45 21 39 161 161 163 158 152 145 141 135 131 126 128 132 137 140 149 151 154 144 152 165 162 162 160 165 166 166 165 152 167 167 169
0 3 27 82 72 96 71 159 66 83 120 87 116 97 43 52 77 139 147 157 162 160 154 152 144 144 140 129 135 141 144 147 148 155 152 160 163 167 178 180 177 173 182 182 173 176 191 190 197
3 19 33 66 72 86 102 164 131 85 232 137 117 64 43 12 209 155 158 156 157 159 155 156 153 152 147 136 134 139 142 145 146 149 153 165 160 174 172 177 185 197 200 212 200 214 210 209 235
8 22 49 66 77 93 96 124 147 43 96 189 130 91 64 341 184 164 157 154 157 157 156 160 158 159 160 149 143 143 141 148 149 154 154 161 169 171 194 199 206 218 228 224 217 227 208 218 237
25 38 60 74 68 161 200 182 144 110 238 163 161 114 84 77 141 154 157 157 159 160 160 165 166 165 167 162 159 152 152 153 160 166 175 190 195 202 189 195 211 219 225 231 223 220 214 220 227
53 40 50 52 40 83 272 196 163 196 151 150 120 128 128 145 150 155 163 162 163 164 165 168 169 169 171 168 160 158 162 167 179 185 197 204 212 179 186 198 209 216 221 220 218 206 188 178 159
60 49 64 355 329 348 212 154 185 171 172 193 151 142 170 172 165 165 167 168 168 172 170 172 175 172 173 173 167 166 175 175 179 190 215 223 176 159 166 170 182 197 197 197 197 180 178 177 178
73 60 116 224 296 36 173 150 116 154 151 143 161 168 165 180 169 170 168 171 176 178 177 177 178 176 180 177 180 174 183 182 183 202 203 173 163 166 172 169 182 193 195 196 190 180 189 192 191
59 54 337 295 222 48 163 176 85 116 147 161 184 183 214 175 168 171 170 174 179 181 180 178 188 188 186 184 183 180 184 183 183 181 168 160 162 171 176 180 184 189 192 192 188 186 192 200 197
45 339 331 259 259 339 202 211 152 163 166 195 196 219 174 169 170 172 175 179 184 187 185 189 193 198 195 191 191 185 190 186 181 178 175 177 175 172 174 178 182 185 189 191 195 198 202 201 204
148 304 327 16 284 282 181 201 191 199 204 209 192 163 162 166 171 177 183 187 184 184 190 196 196 196 196 197 198 194 199 190 186 185 182 181 185 174 177 183 191 197 194 194 205 212 216 211 219
314 302 246 306 319 207 251 174 219 211 233 223 188 175 168 172 177 183 185 187 187 188 197 201 198 203 201 204 211 205 204 195 192 190 187 187 182 179 187 199 201 209 212 214 221 218 216 221 215
17 337 312 299 271 258 227 237 253 241 213 195 177 174 177 181 185 190 192 193 190 199 201 205 207 213 210 209 212 209 207 198 197 195 192 193 189 192 202 213 224 211 189 208 212 229 224 224 204
325 310 297 288 267 253 241 255 253 298 198 172 176 180 185 190 193 196 201 202 203 208 212 210 214 214 210 217 212 207 205 202 198 200 197 195 192 194 207 228 221 203 201 235 215 222 227 213 206
331 332 327 332 304 274 234 255 237 228 179 181 185 188 192 197 200 203 204 211 211 212 212 214 215 216 217 220 211 202 210 207 198 202 205 197 199 206 229 268 216 211 233 219 210 233 228 220 212
348 38 351 357 298 333 222 289 253 194 182 188 190 194 199 204 208 208 210 215 220 220 214 213 214 215 220 222 219 211 211 210 201 202 200 200 203 215 230 232 177 192 207 220 226 246 208 210 188
26 337 327 328 288 300 230 290 288 172 196 200 198 198 204 210 213 215 212 215 221 218 214 213 213 214 218 224 221 217 221 214 209 207 209 208 205 211 182 176 180 191 196 206 203 193 185 177 173
326 319 317 314 312 269 266 267 263 213 203 212 213 209 206 210 216 214 216 214 217 217 216 216 215 215 216 218 222 222 219 218 216 208 207 209 198 186 186 172 180 187 188 193 190 212 192 172 171
288 292 308 306 319 285 260 268 283 239 222 216 217 215 215 214 216 216 222 220 216 216 216 215 216 217 218 222 225 221 216 214 213 209 204 206 194 189 164 164 154 166 179 182 195 188 183 187 188
269 301 311 296 317 290 296 283 283 252 236 227 219 218 218 219 212 214 219 222 217 217 219 216 219 222 228 232 237 227 216 211 204 206 204 201 197 192 180 164 187 178 177 173 169 189 210 198 199
271 268 297 299 326 308 294 285 287 265 259 248 237 227 223 214 211 211 213 218 212 216 220 219 220 225 232 237 223 210 207 202 202 205 202 195 200 203 198 209 204 200 190 181 182 188 183 206 216
281 215 284 307 328 316 342 311 311 295 284 250 241 222 220 213 212 211 212 211 211 213 216 218 221 226 230 234 215 201 199 198 204 205 195 194 200 191 180 196 195 188 184 159 146 159 156 186 226
281 304 313 309 290 298 246 265 279 313 306 319 295 224 215 207 207 208 208 208 208 209 213 215 219 221 230 233 208 199 201 204 197 195 190 196 200 200 197 197 173 172 166 153 134 127 145 82 66
302 301 303 72 263 265 55 272 288 314 317 317 315 238 208 202 207 206 207 206 205 206 206 218 221 221 224 228 203 201 200 198 196 191 191 195 197 201 202 203 187 162 155 156 157 152 148 68 73
227 280 297 265 245 296 119 247 269 289 304 304 309 260 199 197 198 200 199 204 205 206 202 211 215 219 221 220 201 195 193 201 198 196 197 198 199 200 203 193 186 184 179 181 187 179 180 215 226
187 271 266 282 287 304 166 243 296 283 327 319 318 259 202 196 199 200 203 206 210 209 204 201 204 211 215 218 202 196 198 200 204 203 202 202 204 205 204 198 206 213 212 217 232 234 239 262 280
156 219 350 193 148 257 271 272 281 330 336 358 325 257 216 210 207 203 202 207 212 212 210 212 220 220 214 218 205 201 199 203 204 198 202 206 209 209 215 216 218 223 221 220 224 230 246 261 279
242 142 200 206 250 272 249 279 278 324 343 344 1 300 250 214 207 210 207 207 213 217 212 215 220 223 224 216 210 206 202 202 200 204 208 211 217 215 226 221 225 233 234 236 241 249 269 279 283
158 206 204 237 252 268 277 262 204 278 326 325 344 344 269 234 212 206 208 215 218 212 209 210 213 215 221 215 213 206 207 209 209 207 209 215 211 205 207 213 223 228 238 246 253 254 258 272 277
264 215 214 243 220 230 297 266 188 267 307 317 340 340 315 255 218 210 205 213 215 214 212 213 216 213 218 216 216 208 206 209 210 208 210 209 216 221 216 226 223 232 246 262 265 253 251 258 265